EN

Hourly Weather Pujali

Today, 16 January, Saturday

Time Temperature Precipitation Wind Pressure Humidity
00:00 +18°C° 0 mm 1 mps 758 mmHg 51%
01:00 +18°C° 0 mm 1 mps 758 mmHg 52%
02:00 +16°C° 0 mm 0 mps 758 mmHg 53%
03:00 +15°C° 0 mm 0 mps 758 mmHg 54%
04:00 +15°C° 0 mm 0 mps 758 mmHg 55%
05:00 +15°C° 0 mm 1 mps 758 mmHg 55%
06:00 +15°C° 0 mm 1 mps 758 mmHg 56%
07:00 +18°C° 0 mm 1 mps 758 mmHg 51%
08:00 +19°C° 0 mm 1 mps 759 mmHg 46%
09:00 +21°C° 0 mm 1 mps 760 mmHg 42%
10:00 +23°C° 0 mm 1 mps 759 mmHg 37%
11:00 +26°C° 0 mm 1 mps 759 mmHg 32%
12:00 +26°C° 0 mm 0 mps 759 mmHg 27%
13:00 +29°C° 0 mm 1 mps 758 mmHg 25%
14:00 +29°C° 0 mm 1 mps 757 mmHg 23%
15:00 +30°C° 0 mm 2 mps 756 mmHg 21%
16:00 +28°C° 0 mm 2 mps 756 mmHg 26%
17:00 +26°C° 0 mm 2 mps 756 mmHg 30%
18:00 +24°C° 0 mm 2 mps 756 mmHg 34%
19:00 +23°C° 0 mm 2 mps 757 mmHg 41%
20:00 +21°C° 0 mm 2 mps 757 mmHg 48%
21:00 +20°C° 0 mm 1 mps 758 mmHg 55%
22:00 +20°C° 0 mm 1 mps 758 mmHg 58%
23:00 +19°C° 0 mm 1 mps 758 mmHg 61%

Tomorrow, 17 January, Sunday

Time Temperature Precipitation Wind Pressure Humidity
00:00 +17°C° 0 mm 0 mps 758 mmHg 63%
01:00 +18°C° 0 mm 1 mps 758 mmHg 64%
02:00 +18°C° 0 mm 1 mps 758 mmHg 65%
03:00 +16°C° 0 mm 1 mps 758 mmHg 66%
04:00 +16°C° 0 mm 1 mps 758 mmHg 66%
05:00 +16°C° 0 mm 1 mps 759 mmHg 66%
06:00 +15°C° 0 mm 1 mps 759 mmHg 66%
07:00 +18°C° 0 mm 1 mps 760 mmHg 58%
08:00 +20°C° 0 mm 1 mps 760 mmHg 50%
09:00 +22°C° 0 mm 1 mps 761 mmHg 42%
10:00 +25°C° 0 mm 1 mps 761 mmHg 36%
11:00 +27°C° 0 mm 1 mps 760 mmHg 29%
12:00 +29°C° 0 mm 1 mps 760 mmHg 23%
13:00 +30°C° 0 mm 1 mps 759 mmHg 22%
14:00 +30°C° 0 mm 1 mps 759 mmHg 20%
15:00 +31°C° 0 mm 1 mps 758 mmHg 18%
16:00 +29°C° 0 mm 1 mps 758 mmHg 21%
17:00 +27°C° 0 mm 1 mps 758 mmHg 23%
18:00 +25°C° 0 mm 1 mps 758 mmHg 26%
19:00 +24°C° 0 mm 1 mps 759 mmHg 33%
20:00 +22°C° 0 mm 1 mps 760 mmHg 41%
21:00 +21°C° 0 mm 1 mps 760 mmHg 49%
22:00 +20°C° 0 mm 1 mps 760 mmHg 52%
23:00 +20°C° 0 mm 1 mps 760 mmHg 55%

Day after tomorrow, 18 January, Monday

Time Temperature Precipitation Wind Pressure Humidity
00:00 +17°C° 0 mm 0 mps 760 mmHg 59%
01:00 +17°C° 0 mm 0 mps 760 mmHg 60%
02:00 +19°C° 0 mm 1 mps 760 mmHg 61%
03:00 +18°C° 0 mm 1 mps 759 mmHg 62%
04:00 +18°C° 0 mm 1 mps 760 mmHg 62%
05:00 +16°C° 0 mm 1 mps 760 mmHg 62%
06:00 +16°C° 0 mm 1 mps 760 mmHg 62%
07:00 +19°C° 0 mm 1 mps 760 mmHg 54%
08:00 +21°C° 0 mm 1 mps 761 mmHg 46%
09:00 +23°C° 0 mm 1 mps 761 mmHg 38%
10:00 +25°C° 0 mm 1 mps 761 mmHg 33%
11:00 +28°C° 0 mm 1 mps 761 mmHg 27%
12:00 +30°C° 0 mm 1 mps 761 mmHg 21%
13:00 +30°C° 0 mm 1 mps 760 mmHg 20%
14:00 +31°C° 0 mm 1 mps 759 mmHg 18%
15:00 +31°C° 0 mm 2 mps 758 mmHg 17%
16:00 +29°C° 0 mm 2 mps 758 mmHg 20%
17:00 +27°C° 0 mm 1 mps 758 mmHg 23%
18:00 +26°C° 0 mm 1 mps 758 mmHg 26%
19:00 +24°C° 0 mm 2 mps 758 mmHg 32%
20:00 +23°C° 0 mm 2 mps 758 mmHg 39%
21:00 +21°C° 0 mm 2 mps 759 mmHg 46%
22:00 +20°C° 0 mm 2 mps 759 mmHg 49%
23:00 +20°C° 0 mm 2 mps 759 mmHg 52%

19 January, Tuesday

Time Temperature Precipitation Wind Pressure Humidity
00:00 +19°C° 0 mm 2 mps 758 mmHg 55%
01:00 +19°C° 0 mm 2 mps 758 mmHg 59%
02:00 +18°C° 0 mm 2 mps 758 mmHg 63%
03:00 +18°C° 0 mm 2 mps 758 mmHg 66%
04:00 +18°C° 0 mm 2 mps 758 mmHg 72%
05:00 +18°C° 0 mm 2 mps 757 mmHg 78%
06:00 +18°C° 0 mm 3 mps 757 mmHg 83%
07:00 +20°C° 0 mm 3 mps 758 mmHg 74%
08:00 +22°C° 0 mm 4 mps 758 mmHg 65%
09:00 +25°C° 0 mm 4 mps 759 mmHg 56%
10:00 +27°C° 0 mm 4 mps 758 mmHg 47%
11:00 +29°C° 0 mm 4 mps 758 mmHg 39%
12:00 +32°C° 0 mm 5 mps 758 mmHg 31%
13:00 +33°C° 0 mm 4 mps 757 mmHg 28%
14:00 +33°C° 0 mm 4 mps 756 mmHg 25%
15:00 +34°C° 0 mm 4 mps 756 mmHg 21%
16:00 +32°C° 0 mm 4 mps 756 mmHg 27%
17:00 +28°C° 0 mm 3 mps 755 mmHg 34%
18:00 +26°C° 0 mm 2 mps 755 mmHg 40%
19:00 +25°C° 0 mm 3 mps 756 mmHg 53%
20:00 +22°C° 0 mm 3 mps 756 mmHg 65%
21:00 +21°C° 0 mm 3 mps 757 mmHg 78%
22:00 +20°C° 0 mm 3 mps 757 mmHg 81%
23:00 +20°C° 0 mm 3 mps 757 mmHg 83%

20 January, Wednesday

Time Temperature Precipitation Wind Pressure Humidity
00:00 +20°C° 0 mm 3 mps 757 mmHg 86%
01:00 +20°C° 0 mm 2 mps 757 mmHg 86%
02:00 +20°C° 0 mm 2 mps 757 mmHg 86%
03:00 +19°C° 0 mm 2 mps 757 mmHg 86%
04:00 +20°C° 0 mm 1 mps 757 mmHg 84%
05:00 +20°C° 0 mm 1 mps 757 mmHg 81%
06:00 +19°C° 0 mm 1 mps 757 mmHg 79%
07:00 +21°C° 0 mm 1 mps 757 mmHg 68%
08:00 +23°C° 0 mm 1 mps 758 mmHg 57%
09:00 +24°C° 0 mm 1 mps 758 mmHg 47%
10:00 +27°C° 0 mm 1 mps 758 mmHg 40%
11:00 +29°C° 0 mm 1 mps 758 mmHg 34%
12:00 +31°C° 0 mm 1 mps 758 mmHg 27%
13:00 +31°C° 0 mm 1 mps 757 mmHg 26%
14:00 +32°C° 0 mm 1 mps 756 mmHg 25%
15:00 +34°C° 0 mm 2 mps 756 mmHg 24%
16:00 +31°C° 0 mm 2 mps 756 mmHg 29%
17:00 +29°C° 0 mm 2 mps 756 mmHg 35%
18:00 +27°C° 0 mm 2 mps 756 mmHg 41%
19:00 +26°C° 0 mm 2 mps 756 mmHg 54%
20:00 +24°C° 0 mm 3 mps 757 mmHg 68%
21:00 +22°C° 0 mm 3 mps 757 mmHg 82%
22:00 +21°C° 0 mm 3 mps 757 mmHg 84%
23:00 +21°C° 0 mm 2 mps 757 mmHg 86%

21 January, Thursday

Time Temperature Precipitation Wind Pressure Humidity
00:00 +21°C° 0 mm 2 mps 757 mmHg 89%
01:00 +21°C° 0 mm 1 mps 757 mmHg 88%
02:00 +21°C° 0 mm 1 mps 757 mmHg 87%
03:00 +19°C° 0 mm 0 mps 757 mmHg 86%
04:00 +20°C° 0 mm 1 mps 757 mmHg 81%
05:00 +20°C° 0 mm 1 mps 757 mmHg 77%
06:00 +20°C° 0 mm 1 mps 757 mmHg 73%
07:00 +20°C° 0 mm 2 mps 757 mmHg 65%
08:00 +21°C° 0 mm 2 mps 758 mmHg 57%
09:00 +24°C° 0 mm 2 mps 758 mmHg 49%
10:00 +26°C° 0 mm 2 mps 758 mmHg 42%
11:00 +28°C° 0 mm 3 mps 758 mmHg 36%
12:00 +30°C° 0 mm 3 mps 757 mmHg 30%
13:00 +31°C° 0 mm 3 mps 757 mmHg 26%
14:00 +31°C° 0 mm 3 mps 756 mmHg 23%
15:00 +33°C° 0 mm 3 mps 756 mmHg 20%
16:00 +30°C° 0 mm 3 mps 756 mmHg 21%
17:00 +28°C° 0 mm 3 mps 756 mmHg 23%
18:00 +27°C° 0 mm 3 mps 756 mmHg 24%
19:00 +25°C° 0 mm 3 mps 756 mmHg 25%
20:00 +24°C° 0 mm 2 mps 757 mmHg 27%
21:00 +23°C° 0 mm 2 mps 758 mmHg 28%
22:00 +21°C° 0 mm 2 mps 758 mmHg 30%
23:00 +20°C° 0 mm 2 mps 758 mmHg 32%
Show more